Miscellaneous Local Product
Issued by NWS North Platte, NE

Home | Current Version | Previous Version | Text Only | Print | Product List | Glossary On
Versions: 1 2 3 4 5 6 7 8 9 10 11 12 13 14 15 16 17 18 19 20 21 22 23 24 25 26 27 28 29 30 31 32 33 34 35 36 37 38 39 40 41 42 43 44 45 46 47 48 49 50
651
AXUS43 KLBF 100710
MISLBF


WESTERN AND NORTH CENTRAL NEBRASKA HOURLY WEATHER ROUNDUP
NATIONAL WEATHER SERVICE NORTH PLATTE NE
100 AM CST SAT DEC 10 2016

NOTE: "FAIR" INDICATES FEW OR NO CLOUDS BELOW 12,000 FEET WITH NO
SIGNIFICANT WEATHER AND/OR OBSTRUCTIONS TO VISIBILITY.

NOTE: STATIONS NOT REPORTING VARIABLES SUCH AS SKY/WEATHER OR
PRESSURE ARE PROVIDED BY RAWS AND APRS NETWORKS AND ARE NOT UNDER
NATIONAL WEATHER SERVICE QUALITY CONTROL.

...OBSERVATIONS IN AND NEAR THE EASTERN PANHANDLE OF NEBRASKA...

CITY           SKY/WX    TMP DP  RH WIND       PRES   REMARKS
PINE RIDGE     LGT SNOW   5   2  87 E9        30.20F FOG     WCI  -9
CHADRON        CLOUDY     5   1  83 NE8       30.20F WCI  -8
ALLIANCE       CLOUDY     9   4  80 SE10      30.13F WCI  -5
SIDNEY         CLOUDY    20  14  77 E6        30.12F WCI  12
CRESCENT LAKE    N/A      9   5  83 E7          N/A  WCI  -2
$$

...OBSERVATIONS IN NORTHERN NEBRASKA AND FAR SOUTHERN SOUTH DAKOTA...

CITY           SKY/WX    TMP DP  RH WIND       PRES   REMARKS
WINNER         CLOUDY     5   1  83 N5        30.42F WCI  -4
VALENTINE      CLOUDY     5   1  83 NE9       30.33F WCI  -9
THEDFORD       LGT SNOW  10   8  89 NE6       30.28F WCI   1
AINSWORTH      FLURRIES   9   7  91 NE8       30.33F WCI  -3
O`NEILL        FLURRIES  10   8  90 NE6       30.40F WCI   1
ORD            CLOUDY    14   9  80 CALM      30.36F
BROKEN BOW     CLOUDY    19  14  81 SE8       30.29F WCI   9
VALENTINE NWR    N/A      7   3  82 NE6         N/A  WCI  -3
BUTTE            N/A      6   3  89 N9          N/A  WCI  -8
HALSEY           N/A      8   4  84 NE5         N/A  WCI   0
CHAMBERS         N/A     11   0  60 N3          N/A
EWING            N/A     12  10  90 NE3         N/A
$$

...OBSERVATIONS IN SOUTHWEST NEBRASKA AND FAR NORTHEAST COLORADO...

CITY           SKY/WX    TMP DP  RH WIND       PRES   REMARKS
WRAY           CLOUDY    21  18  86 SE6       30.17  WCI  14
HOLYOKE        FAIR      23  18  80 E5        30.15F WCI  17
IMPERIAL       CLOUDY    18  13  80 SE12      30.18F WCI   5
OGALLALA       CLOUDY    19  14  81 E7        30.19F WCI   9
NORTH PLATTE   CLOUDY    17  11  77 SE12      30.25F WCI   4
MCCOOK         CLOUDY    15  10  80 E6        30.26F WCI   6
LEXINGTON      CLOUDY    16  12  82 SE10      30.30F WCI   4
STAPLETON        N/A     13   9  84 CALM        N/A
GOTHENBURG       N/A     15  11  84 E8          N/A  WCI   4
CALLAWAY         N/A     18  14  83 SE12        N/A  WCI   6
$$

...OBSERVATIONS IN CENTRAL LINCOLN COUNTY AREA...

CITY           SKY/WX    TMP DP  RH WIND       PRES   REMARKS
N.P. AIRPORT   CLOUDY    17  11  77 SE12      30.25F WCI   4
N.P. DOWNTOWN    N/A     16  12  83 E3          N/A
N.P. SOUTHEAST   N/A     16  11  81 E3          N/A
N.P. HILLCREST   N/A     17  12  80 SE9         N/A  WCI   6
$$

...SOME OBSERVATIONS FROM AROUND THE REGION...

CITY           SKY/WX    TMP DP  RH WIND       PRES   REMARKS
LARAMIE          N/A    N/A N/A N/A MISG        N/A
CHEYENNE       CLOUDY    26  19  74 W7        30.03F WCI  18
DENVER         CLOUDY    21  17  84 SW10      30.05F WCI  10
AKRON          CLOUDY    20  15  81 SE13      30.06F WCI   7
SCOTTSBLUFF    CLOUDY    14   6  70 E17G23    30.09F WCI  -3
RAPID CITY     CLOUDY     3  -2  79 SE14      30.22F WCI -15
BISMARCK       CLOUDY   -15 -19  82 NE3       30.48F
PIERRE         CLOUDY    -5 -10  79 NE5       30.46F WCI -16
SIOUX FALLS    CLOUDY    11   7  84 NE7       30.47F WCI   0
OMAHA          CLOUDY    23  12  62 SE6       30.49F WCI  16
GRAND ISLAND   CLOUDY    17  13  84 SE5       30.39F WCI  10
KANSAS CITY    CLOUDY    27  11  51 SE5       30.49S WCI  22
WICHITA        CLOUDY    21  13  71 SE5       30.44S WCI  15
OKLAHOMA CITY  CLOUDY    33  16  49 S9        30.42F WCI  25
DALLAS         CLOUDY    36  23  59 SE6       30.48F WCI  31
AMARILLO       CLOUDY    28  26  92 S15       30.20F WCI  16
DODGE CITY     CLOUDY    20  14  77 S14       30.28F WCI   7
HAYS           CLOUDY    15  11  83 SE5       30.35F WCI   8
GOODLAND       CLOUDY    23  19  85 S7        30.17F WCI  15
$$




USA.gov is the U.S. government's official web portal to all federal, state and local government web resources and services.